Year,Month,Day,Hour,Minute,Value (Times are PST for temperature in C)
2007,03,30,00,00,7.00
2007,03,30,00,01,6.90
2007,03,30,00,02,6.90
2007,03,30,00,03,6.90
2007,03,30,00,04,6.90
2007,03,30,00,05,6.90
2007,03,30,00,06,6.80
2007,03,30,00,07,6.80
2007,03,30,00,08,6.80
2007,03,30,00,09,6.90
2007,03,30,00,10,6.90
2007,03,30,00,11,6.90
2007,03,30,00,12,6.90
2007,03,30,00,13,6.90
2007,03,30,00,14,6.90
2007,03,30,00,15,6.90
2007,03,30,00,16,6.90
2007,03,30,00,17,6.90
2007,03,30,00,18,6.90
2007,03,30,00,19,6.90
2007,03,30,00,20,6.90
2007,03,30,00,21,6.90
2007,03,30,00,22,6.90
2007,03,30,00,23,6.80
2007,03,30,00,24,6.80
2007,03,30,00,25,6.80
2007,03,30,00,26,6.80
2007,03,30,00,27,6.80
2007,03,30,00,28,6.80
2007,03,30,00,29,6.80
2007,03,30,00,30,6.80
2007,03,30,00,31,6.80
2007,03,30,00,32,6.80
2007,03,30,00,33,6.80
2007,03,30,00,34,6.80
2007,03,30,00,35,6.80
2007,03,30,00,36,6.80
2007,03,30,00,37,6.70
2007,03,30,00,38,6.70
2007,03,30,00,39,6.70
2007,03,30,00,40,6.70
2007,03,30,00,41,6.70
2007,03,30,00,42,6.70
2007,03,30,00,43,6.60
2007,03,30,00,44,6.60
2007,03,30,00,45,6.60
2007,03,30,00,46,6.60
2007,03,30,00,47,6.60
2007,03,30,00,48,6.60
2007,03,30,00,49,6.60
2007,03,30,00,50,6.60
2007,03,30,00,51,6.60
2007,03,30,00,52,6.60
2007,03,30,00,53,6.60
2007,03,30,00,54,6.60
2007,03,30,00,55,6.60
2007,03,30,00,56,6.60
2007,03,30,00,57,6.60
2007,03,30,00,58,6.60
2007,03,30,00,59,6.50
2007,03,30,01,00,6.50
2007,03,30,01,01,6.50
2007,03,30,01,02,6.50
2007,03,30,01,03,6.40
2007,03,30,01,04,6.40
2007,03,30,01,05,6.40
2007,03,30,01,06,6.40
2007,03,30,01,07,6.40
2007,03,30,01,08,6.40
2007,03,30,01,09,6.40
2007,03,30,01,10,6.40
2007,03,30,01,11,6.40
2007,03,30,01,12,6.30
2007,03,30,01,13,6.30
2007,03,30,01,14,6.30
2007,03,30,01,15,6.30
2007,03,30,01,16,6.30
2007,03,30,01,17,6.30
2007,03,30,01,18,6.30
2007,03,30,01,19,6.30
2007,03,30,01,20,6.30
2007,03,30,01,21,6.30
2007,03,30,01,22,6.30
2007,03,30,01,23,6.30
2007,03,30,01,24,6.20
2007,03,30,01,25,6.20
2007,03,30,01,26,6.20
2007,03,30,01,27,6.20
2007,03,30,01,28,6.20
2007,03,30,01,29,6.20
2007,03,30,01,30,6.10
2007,03,30,01,31,6.10
2007,03,30,01,32,6.10
2007,03,30,01,33,6.10
2007,03,30,01,34,6.10
2007,03,30,01,35,6.10
2007,03,30,01,36,6.10
2007,03,30,01,37,6.10
2007,03,30,01,38,6.10
2007,03,30,01,39,6.10
2007,03,30,01,40,6.10
2007,03,30,01,41,6.10
2007,03,30,01,42,6.20
2007,03,30,01,43,6.20
2007,03,30,01,44,6.20
2007,03,30,01,45,6.20
2007,03,30,01,46,6.20
2007,03,30,01,47,6.20
2007,03,30,01,48,6.20
2007,03,30,01,49,6.20
2007,03,30,01,50,6.20
2007,03,30,01,51,6.20
2007,03,30,01,52,6.10
2007,03,30,01,53,6.10
2007,03,30,01,54,6.10
2007,03,30,01,55,6.10
2007,03,30,01,56,6.10
2007,03,30,01,57,6.20
2007,03,30,01,58,6.20
2007,03,30,01,59,6.20
2007,03,30,02,00,6.20
2007,03,30,02,01,6.20
2007,03,30,02,02,6.20
2007,03,30,02,03,6.20
2007,03,30,02,04,6.20
2007,03,30,02,05,6.20
2007,03,30,02,06,6.10
2007,03,30,02,07,6.10
2007,03,30,02,08,6.10
2007,03,30,02,09,6.10
2007,03,30,02,10,6.10
2007,03,30,02,11,6.10
2007,03,30,02,12,6.10
2007,03,30,02,13,6.10
2007,03,30,02,14,6.10
2007,03,30,02,15,6.10
2007,03,30,02,16,6.10
2007,03,30,02,17,6.10
2007,03,30,02,18,6.10
2007,03,30,02,19,6.10
2007,03,30,02,20,6.10
2007,03,30,02,21,6.10
2007,03,30,02,22,6.10
2007,03,30,02,23,6.10
2007,03,30,02,24,6.10
2007,03,30,02,25,6.10
2007,03,30,02,26,6.10
2007,03,30,02,27,6.10
2007,03,30,02,28,6.20
2007,03,30,02,29,6.20
2007,03,30,02,30,6.20
2007,03,30,02,31,6.20
2007,03,30,02,32,6.20
2007,03,30,02,33,6.20
2007,03,30,02,34,6.20
2007,03,30,02,35,6.20
2007,03,30,02,36,6.20
2007,03,30,02,37,6.20
2007,03,30,02,38,6.30
2007,03,30,02,39,6.30
2007,03,30,02,40,6.30
2007,03,30,02,41,6.30
2007,03,30,02,42,6.30
2007,03,30,02,43,6.30
2007,03,30,02,44,6.30
2007,03,30,02,45,6.30
2007,03,30,02,46,6.30
2007,03,30,02,47,6.30
2007,03,30,02,48,6.30
2007,03,30,02,49,6.30
2007,03,30,02,50,6.30
2007,03,30,02,51,6.30
2007,03,30,02,52,6.30
2007,03,30,02,53,6.30
2007,03,30,02,54,6.30
2007,03,30,02,55,6.30
2007,03,30,02,56,6.30
2007,03,30,02,57,6.30
2007,03,30,02,58,6.30
2007,03,30,02,59,6.30
2007,03,30,03,00,6.30
2007,03,30,03,01,6.30
2007,03,30,03,02,6.30
2007,03,30,03,03,6.30
2007,03,30,03,04,6.30
2007,03,30,03,05,6.30
2007,03,30,03,06,6.30
2007,03,30,03,07,6.30
2007,03,30,03,08,6.30
2007,03,30,03,09,6.30
2007,03,30,03,10,6.30
2007,03,30,03,11,6.30
2007,03,30,03,12,6.30
2007,03,30,03,13,6.30
2007,03,30,03,14,6.30
2007,03,30,03,15,6.30
2007,03,30,03,16,6.30
2007,03,30,03,17,6.30
2007,03,30,03,18,6.30
2007,03,30,03,19,6.30
2007,03,30,03,20,6.30
2007,03,30,03,21,6.30
2007,03,30,03,22,6.30
2007,03,30,03,23,6.30
2007,03,30,03,24,6.30
2007,03,30,03,25,6.30
2007,03,30,03,26,6.30
2007,03,30,03,27,6.30
2007,03,30,03,28,6.30
2007,03,30,03,29,6.30
2007,03,30,03,30,6.30
2007,03,30,03,31,6.30
2007,03,30,03,32,6.30
2007,03,30,03,33,6.30
2007,03,30,03,34,6.40
2007,03,30,03,35,6.40
2007,03,30,03,36,6.40
2007,03,30,03,37,6.40
2007,03,30,03,38,6.40
2007,03,30,03,39,6.40
2007,03,30,03,40,6.40
2007,03,30,03,41,6.50
2007,03,30,03,42,6.50
2007,03,30,03,43,6.50
2007,03,30,03,44,6.50
2007,03,30,03,45,6.50
2007,03,30,03,46,6.60
2007,03,30,03,47,6.60
2007,03,30,03,48,6.60
2007,03,30,03,49,6.60
2007,03,30,03,50,6.60
2007,03,30,03,51,6.60
2007,03,30,03,52,6.60
2007,03,30,03,53,6.60
2007,03,30,03,54,6.70
2007,03,30,03,55,6.70
2007,03,30,03,56,6.70
2007,03,30,03,57,6.80
2007,03,30,03,58,6.80
2007,03,30,03,59,6.80
2007,03,30,04,00,6.80
2007,03,30,04,01,6.80
2007,03,30,04,02,6.80
2007,03,30,04,03,6.80
2007,03,30,04,04,6.80
2007,03,30,04,05,6.80
2007,03,30,04,06,6.80
2007,03,30,04,07,6.80
2007,03,30,04,08,6.80
2007,03,30,04,09,6.70
2007,03,30,04,10,6.70
2007,03,30,04,11,6.70
2007,03,30,04,12,6.70
2007,03,30,04,13,6.70
2007,03,30,04,14,6.70
2007,03,30,04,15,6.70
2007,03,30,04,16,6.80
2007,03,30,04,17,6.80
2007,03,30,04,18,6.80
2007,03,30,04,19,6.90
2007,03,30,04,20,6.90
2007,03,30,04,21,6.90
2007,03,30,04,22,6.90
2007,03,30,04,23,6.80
2007,03,30,04,24,6.80
2007,03,30,04,25,6.80
2007,03,30,04,26,6.80
2007,03,30,04,27,6.80
2007,03,30,04,28,6.70
2007,03,30,04,29,6.70
2007,03,30,04,30,6.70
2007,03,30,04,31,6.70
2007,03,30,04,32,6.60
2007,03,30,04,33,6.60
2007,03,30,04,34,6.60
2007,03,30,04,35,6.60
2007,03,30,04,36,6.60
2007,03,30,04,37,6.60
2007,03,30,04,38,6.70
2007,03,30,04,39,6.70
2007,03,30,04,40,6.80
2007,03,30,04,41,6.80
2007,03,30,04,42,6.80
2007,03,30,04,43,6.90
2007,03,30,04,44,7.10
2007,03,30,04,45,7.20
2007,03,30,04,46,7.20
2007,03,30,04,47,7.20
2007,03,30,04,48,7.20
2007,03,30,04,49,7.20
2007,03,30,04,50,7.10
2007,03,30,04,51,7.10
2007,03,30,04,52,7.10
2007,03,30,04,53,7.00
2007,03,30,04,54,7.00
2007,03,30,04,55,7.00
2007,03,30,04,56,6.90
2007,03,30,04,57,6.90
2007,03,30,04,58,6.90
2007,03,30,04,59,6.90
2007,03,30,05,00,6.90
2007,03,30,05,01,6.80
2007,03,30,05,02,6.80
2007,03,30,05,03,6.80
2007,03,30,05,04,6.80
2007,03,30,05,05,6.80
2007,03,30,05,06,6.80
2007,03,30,05,07,6.80
2007,03,30,05,08,6.80
2007,03,30,05,09,6.80
2007,03,30,05,10,6.80
2007,03,30,05,11,6.80
2007,03,30,05,12,6.80
2007,03,30,05,13,6.80
2007,03,30,05,14,6.80
2007,03,30,05,15,6.80
2007,03,30,05,16,6.80
2007,03,30,05,17,6.80
2007,03,30,05,18,6.80
2007,03,30,05,19,6.80
2007,03,30,05,20,6.80
2007,03,30,05,21,6.80
2007,03,30,05,22,6.80
2007,03,30,05,23,6.80
2007,03,30,05,24,6.70
2007,03,30,05,25,6.70
2007,03,30,05,26,6.70
2007,03,30,05,27,6.70
2007,03,30,05,28,6.70
2007,03,30,05,29,6.70
2007,03,30,05,30,6.70
2007,03,30,05,31,6.70
2007,03,30,05,32,6.70
2007,03,30,05,33,6.70
2007,03,30,05,34,6.70
2007,03,30,05,35,6.70
2007,03,30,05,36,6.70
2007,03,30,05,37,6.70
2007,03,30,05,38,6.70
2007,03,30,05,39,6.70
2007,03,30,05,40,6.70
2007,03,30,05,41,6.70
2007,03,30,05,42,6.70
2007,03,30,05,43,6.70
2007,03,30,05,44,6.70
2007,03,30,05,45,6.70
2007,03,30,05,46,6.70
2007,03,30,05,47,6.70
2007,03,30,05,48,6.60
2007,03,30,05,49,6.60
2007,03,30,05,50,6.60
2007,03,30,05,51,6.60
2007,03,30,05,52,6.60
2007,03,30,05,53,6.60
2007,03,30,05,54,6.60
2007,03,30,05,55,6.60
2007,03,30,05,56,6.60
2007,03,30,05,57,6.60
2007,03,30,05,58,6.50
2007,03,30,05,59,6.60
2007,03,30,06,00,6.50
2007,03,30,06,01,6.50
2007,03,30,06,02,6.50
2007,03,30,06,03,6.50
2007,03,30,06,04,6.50
2007,03,30,06,05,6.50
2007,03,30,06,06,6.50
2007,03,30,06,07,6.60
2007,03,30,06,08,6.60
2007,03,30,06,09,6.60
2007,03,30,06,10,6.60
2007,03,30,06,11,6.60
2007,03,30,06,12,6.60
2007,03,30,06,13,6.60
2007,03,30,06,14,6.50
2007,03,30,06,15,6.50
2007,03,30,06,16,6.50
2007,03,30,06,17,6.50
2007,03,30,06,18,6.50
2007,03,30,06,19,6.50
2007,03,30,06,20,6.50
2007,03,30,06,21,6.50
2007,03,30,06,22,6.50
2007,03,30,06,23,6.50
2007,03,30,06,24,6.50
2007,03,30,06,25,6.50
2007,03,30,06,26,6.50
2007,03,30,06,27,6.50
2007,03,30,06,28,6.50
2007,03,30,06,29,6.60
2007,03,30,06,30,6.60
2007,03,30,06,31,6.60
2007,03,30,06,32,6.70
2007,03,30,06,33,6.70
2007,03,30,06,34,6.70
2007,03,30,06,35,6.70
2007,03,30,06,36,6.70
2007,03,30,06,37,6.70
2007,03,30,06,38,6.70
2007,03,30,06,39,6.70
2007,03,30,06,40,6.70
2007,03,30,06,41,6.70
2007,03,30,06,42,6.70
2007,03,30,06,43,6.70
2007,03,30,06,44,6.70
2007,03,30,06,45,6.70
2007,03,30,06,46,6.70
2007,03,30,06,47,6.70
2007,03,30,06,48,6.70
2007,03,30,06,49,6.70
2007,03,30,06,50,6.70
2007,03,30,06,51,6.70
2007,03,30,06,52,6.70
2007,03,30,06,53,6.80
2007,03,30,06,54,6.80
2007,03,30,06,55,6.80
2007,03,30,06,56,6.80
2007,03,30,06,57,6.90
2007,03,30,06,58,6.90
2007,03,30,06,59,6.90
2007,03,30,07,00,6.90
2007,03,30,07,01,6.90
2007,03,30,07,02,6.90
2007,03,30,07,03,6.90
2007,03,30,07,04,6.90
2007,03,30,07,05,6.90
2007,03,30,07,06,6.90
2007,03,30,07,07,6.90
2007,03,30,07,08,6.90
2007,03,30,07,09,6.90
2007,03,30,07,10,6.90
2007,03,30,07,11,6.90
2007,03,30,07,12,6.90
2007,03,30,07,13,6.90
2007,03,30,07,14,6.90
2007,03,30,07,15,6.90
2007,03,30,07,16,6.90
2007,03,30,07,17,6.90
2007,03,30,07,18,6.90
2007,03,30,07,19,7.00
2007,03,30,07,20,7.00
2007,03,30,07,21,7.00
2007,03,30,07,22,7.00
2007,03,30,07,23,7.10
2007,03,30,07,24,7.10
2007,03,30,07,25,7.10
2007,03,30,07,26,7.10
2007,03,30,07,27,7.10
2007,03,30,07,28,7.10
2007,03,30,07,29,7.10
2007,03,30,07,30,7.10
2007,03,30,07,31,7.10
2007,03,30,07,32,7.10
2007,03,30,07,33,7.10
2007,03,30,07,34,7.10
2007,03,30,07,35,7.20
2007,03,30,07,36,7.20
2007,03,30,07,37,7.20
2007,03,30,07,38,7.20
2007,03,30,07,39,7.20
2007,03,30,07,40,7.20
2007,03,30,07,41,7.20
2007,03,30,07,42,7.20
2007,03,30,07,43,7.20
2007,03,30,07,44,7.30
2007,03,30,07,45,7.30
2007,03,30,07,46,7.40
2007,03,30,07,47,7.50
2007,03,30,07,48,7.50
2007,03,30,07,49,7.60
2007,03,30,07,50,7.70
2007,03,30,07,51,7.80
2007,03,30,07,52,7.90
2007,03,30,07,53,8.00
2007,03,30,07,54,8.10
2007,03,30,07,55,8.20
2007,03,30,07,56,8.30
2007,03,30,07,57,8.30
2007,03,30,07,58,8.40
2007,03,30,07,59,8.50
2007,03,30,08,00,8.50
2007,03,30,08,01,8.50
2007,03,30,08,02,8.60
2007,03,30,08,03,8.60
2007,03,30,08,04,8.60
2007,03,30,08,05,8.70
2007,03,30,08,06,8.70
2007,03,30,08,07,8.70
2007,03,30,08,08,8.70
2007,03,30,08,09,8.70
2007,03,30,08,10,8.70
2007,03,30,08,11,8.80
2007,03,30,08,12,8.80
2007,03,30,08,13,8.80
2007,03,30,08,14,8.90
2007,03,30,08,15,8.90
2007,03,30,08,16,9.00
2007,03,30,08,17,9.00
2007,03,30,08,18,9.00
2007,03,30,08,19,9.00
2007,03,30,08,20,9.10
2007,03,30,08,21,9.10
2007,03,30,08,22,9.10
2007,03,30,08,23,9.10
2007,03,30,08,24,9.10
2007,03,30,08,25,9.20
2007,03,30,08,26,9.20
2007,03,30,08,27,9.20
2007,03,30,08,28,9.20
2007,03,30,08,29,9.20
2007,03,30,08,30,9.20
2007,03,30,08,31,9.20
2007,03,30,08,32,9.20
2007,03,30,08,33,9.20
2007,03,30,08,34,9.20
2007,03,30,08,35,9.20
2007,03,30,08,36,9.20
2007,03,30,08,37,9.20
2007,03,30,08,38,9.20
2007,03,30,08,39,9.30
2007,03,30,08,40,9.30
2007,03,30,08,41,9.20
2007,03,30,08,42,9.30
2007,03,30,08,43,9.30
2007,03,30,08,44,9.30
2007,03,30,08,45,9.30
2007,03,30,08,46,9.30
2007,03,30,08,47,9.40
2007,03,30,08,48,9.40
2007,03,30,08,49,9.40
2007,03,30,08,50,9.40
2007,03,30,08,51,9.40
2007,03,30,08,52,9.50
2007,03,30,08,53,9.50
2007,03,30,08,54,9.50
2007,03,30,08,55,9.60
2007,03,30,08,56,9.60
2007,03,30,08,57,9.60
2007,03,30,08,58,9.60
2007,03,30,08,59,9.60
2007,03,30,09,00,9.60
2007,03,30,09,01,9.60
2007,03,30,09,02,9.60
2007,03,30,09,03,9.60
2007,03,30,09,04,9.60
2007,03,30,09,05,9.70
2007,03,30,09,06,9.70
2007,03,30,09,07,9.80
2007,03,30,09,08,9.80
2007,03,30,09,09,9.80
2007,03,30,09,10,9.90
2007,03,30,09,11,9.90
2007,03,30,09,12,9.90
2007,03,30,09,13,9.90
2007,03,30,09,14,10.00
2007,03,30,09,15,10.00
2007,03,30,09,16,10.00
2007,03,30,09,17,10.00
2007,03,30,09,18,10.10
2007,03,30,09,19,10.10
2007,03,30,09,20,10.10
2007,03,30,09,21,10.10
2007,03,30,09,22,10.10
2007,03,30,09,23,10.10
2007,03,30,09,24,10.10
2007,03,30,09,25,10.20
2007,03,30,09,26,10.20
2007,03,30,09,27,10.20
2007,03,30,09,28,10.20
2007,03,30,09,29,10.20
2007,03,30,09,30,10.20
2007,03,30,09,31,10.20
2007,03,30,09,32,10.20
2007,03,30,09,33,10.20
2007,03,30,09,34,10.30
2007,03,30,09,35,10.30
2007,03,30,09,36,10.30
2007,03,30,09,37,10.30
2007,03,30,09,38,10.30
2007,03,30,09,39,10.30
2007,03,30,09,40,10.40
2007,03,30,09,41,10.40
2007,03,30,09,42,10.40
2007,03,30,09,43,10.40
2007,03,30,09,44,10.50
2007,03,30,09,45,10.50
2007,03,30,09,46,10.60
2007,03,30,09,47,10.60
2007,03,30,09,48,10.60
2007,03,30,09,49,10.70
2007,03,30,09,50,10.70
2007,03,30,09,51,10.80
2007,03,30,09,52,10.80
2007,03,30,09,53,10.80
2007,03,30,09,54,10.80
2007,03,30,09,55,10.80
2007,03,30,09,56,10.80
2007,03,30,09,57,10.90
2007,03,30,09,58,10.90
2007,03,30,09,59,11.00
2007,03,30,10,00,11.00
2007,03,30,10,01,11.00
2007,03,30,10,02,11.10
2007,03,30,10,03,11.10
2007,03,30,10,04,11.10
2007,03,30,10,05,11.20
2007,03,30,10,06,11.20
2007,03,30,10,07,11.20
2007,03,30,10,08,11.30
2007,03,30,10,09,11.30
2007,03,30,10,10,11.30
2007,03,30,10,11,11.30
2007,03,30,10,12,11.30
2007,03,30,10,13,11.30
2007,03,30,10,14,11.20
2007,03,30,10,15,11.20
2007,03,30,10,16,11.20
2007,03,30,10,17,11.10
2007,03,30,10,18,11.10
2007,03,30,10,19,11.10
2007,03,30,10,20,11.10
2007,03,30,10,21,11.00
2007,03,30,10,22,11.00
2007,03,30,10,23,11.00
2007,03,30,10,24,10.90
2007,03,30,10,25,10.90
2007,03,30,10,26,10.90
2007,03,30,10,27,10.90
2007,03,30,10,28,11.00
2007,03,30,10,29,11.00
2007,03,30,10,30,11.00
2007,03,30,10,31,11.10
2007,03,30,10,32,11.10
2007,03,30,10,33,11.10
2007,03,30,10,34,11.10
2007,03,30,10,35,11.10
2007,03,30,10,36,11.10
2007,03,30,10,37,11.10
2007,03,30,10,38,11.10
2007,03,30,10,39,11.10
2007,03,30,10,40,11.10
2007,03,30,10,41,11.20
2007,03,30,10,42,11.20
2007,03,30,10,43,11.30
2007,03,30,10,44,11.30
2007,03,30,10,45,11.30
2007,03,30,10,46,11.40
2007,03,30,10,47,11.40
2007,03,30,10,48,11.50
2007,03,30,10,49,11.50
2007,03,30,10,50,11.50
2007,03,30,10,51,11.60
2007,03,30,10,52,11.60
2007,03,30,10,53,11.60
2007,03,30,10,54,11.60
2007,03,30,10,55,11.60
2007,03,30,10,56,11.60
2007,03,30,10,57,11.60
2007,03,30,10,58,11.60
2007,03,30,10,59,11.60
2007,03,30,11,00,11.70
2007,03,30,11,01,11.70
2007,03,30,11,02,11.80
2007,03,30,11,03,11.80
2007,03,30,11,04,11.90
2007,03,30,11,05,11.90
2007,03,30,11,06,12.00
2007,03,30,11,07,12.10
2007,03,30,11,08,12.10
2007,03,30,11,09,12.10
2007,03,30,11,10,12.20
2007,03,30,11,11,12.20
2007,03,30,11,12,12.30
2007,03,30,11,13,12.30
2007,03,30,11,14,12.40
2007,03,30,11,15,12.40
2007,03,30,11,16,12.40
2007,03,30,11,17,12.50
2007,03,30,11,18,12.50
2007,03,30,11,19,12.60
2007,03,30,11,20,12.60
2007,03,30,11,21,12.60
2007,03,30,11,22,12.60
2007,03,30,11,23,12.60
2007,03,30,11,24,12.60
2007,03,30,11,25,12.70
2007,03,30,11,26,12.70
2007,03,30,11,27,12.70
2007,03,30,11,28,12.80
2007,03,30,11,29,12.80
2007,03,30,11,30,12.80
2007,03,30,11,31,12.80
2007,03,30,11,32,12.80
2007,03,30,11,33,12.90
2007,03,30,11,34,12.90
2007,03,30,11,35,12.90
2007,03,30,11,36,12.90
2007,03,30,11,37,13.00
2007,03,30,11,38,13.10
2007,03,30,11,39,13.10
2007,03,30,11,40,13.10
2007,03,30,11,41,13.20
2007,03,30,11,42,13.20
2007,03,30,11,43,13.20
2007,03,30,11,44,13.20
2007,03,30,11,45,13.20
2007,03,30,11,46,13.30
2007,03,30,11,47,13.30
2007,03,30,11,48,13.40
2007,03,30,11,49,13.40
2007,03,30,11,50,13.40
2007,03,30,11,51,13.30
2007,03,30,11,52,13.30
2007,03,30,11,53,13.30
2007,03,30,11,54,13.40
2007,03,30,11,55,13.40
2007,03,30,11,56,13.30
2007,03,30,11,57,13.30
2007,03,30,11,58,13.30
2007,03,30,11,59,13.40
2007,03,30,12,00,13.40
2007,03,30,12,01,13.30
2007,03,30,12,02,13.30
2007,03,30,12,03,13.30
2007,03,30,12,04,13.30
2007,03,30,12,05,13.30
2007,03,30,12,06,13.30
2007,03,30,12,07,13.30
2007,03,30,12,08,13.30
2007,03,30,12,09,13.30
2007,03,30,12,10,13.30
2007,03,30,12,11,13.20
2007,03,30,12,12,13.20
2007,03,30,12,13,13.20
2007,03,30,12,14,13.00
2007,03,30,12,15,12.90
2007,03,30,12,16,12.90
2007,03,30,12,17,13.00
2007,03,30,12,18,13.00
2007,03,30,12,19,13.10
2007,03,30,12,20,13.00
2007,03,30,12,21,13.00
2007,03,30,12,22,13.00
2007,03,30,12,23,13.00
2007,03,30,12,24,13.00
2007,03,30,12,25,12.90
2007,03,30,12,26,12.90
2007,03,30,12,27,12.90
2007,03,30,12,28,12.90
2007,03,30,12,29,12.90
2007,03,30,12,30,13.00
2007,03,30,12,31,13.10
2007,03,30,12,32,13.10
2007,03,30,12,33,13.10
2007,03,30,12,34,13.00
2007,03,30,12,35,12.90
2007,03,30,12,36,12.90
2007,03,30,12,37,12.90
2007,03,30,12,38,12.90
2007,03,30,12,39,12.90
2007,03,30,12,40,13.00
2007,03,30,12,41,13.00
2007,03,30,12,42,12.90
2007,03,30,12,43,12.90
2007,03,30,12,44,12.90
2007,03,30,12,45,12.90
2007,03,30,12,46,12.90
2007,03,30,12,47,12.90
2007,03,30,12,48,12.90
2007,03,30,12,49,12.90
2007,03,30,12,50,12.90
2007,03,30,12,51,12.90
2007,03,30,12,52,12.90
2007,03,30,12,53,13.00
2007,03,30,12,54,13.10
2007,03,30,12,55,13.20
2007,03,30,12,56,13.30
2007,03,30,12,57,13.30
2007,03,30,12,58,13.30
2007,03,30,12,59,13.30
2007,03,30,13,00,13.30
2007,03,30,13,01,13.20
2007,03,30,13,02,13.20
2007,03,30,13,03,13.20
2007,03,30,13,04,13.20
2007,03,30,13,05,13.30
2007,03,30,13,06,13.30
2007,03,30,13,07,13.30
2007,03,30,13,08,13.30
2007,03,30,13,09,13.30
2007,03,30,13,10,13.20
2007,03,30,13,11,13.20
2007,03,30,13,12,13.20
2007,03,30,13,13,13.20
2007,03,30,13,14,13.10
2007,03,30,13,15,13.10
2007,03,30,13,16,13.00
2007,03,30,13,17,12.90
2007,03,30,13,18,12.90
2007,03,30,13,19,12.80
2007,03,30,13,20,12.80
2007,03,30,13,21,12.70
2007,03,30,13,22,12.60
2007,03,30,13,23,12.50
2007,03,30,13,24,12.40
2007,03,30,13,25,12.30
2007,03,30,13,26,12.30
2007,03,30,13,27,12.20
2007,03,30,13,28,12.20
2007,03,30,13,29,12.20
2007,03,30,13,30,12.20
2007,03,30,13,31,12.20
2007,03,30,13,32,12.30
2007,03,30,13,33,12.40
2007,03,30,13,34,12.40
2007,03,30,13,35,12.30
2007,03,30,13,36,12.30
2007,03,30,13,37,12.30
2007,03,30,13,38,12.30
2007,03,30,13,39,12.30
2007,03,30,13,40,12.30
2007,03,30,13,41,12.30
2007,03,30,13,42,12.30
2007,03,30,13,43,12.20
2007,03,30,13,44,12.10
2007,03,30,13,45,12.00
2007,03,30,13,46,11.90
2007,03,30,13,47,11.90
2007,03,30,13,48,11.90
2007,03,30,13,49,11.90
2007,03,30,13,50,11.90
2007,03,30,13,51,11.90
2007,03,30,13,52,11.90
2007,03,30,13,53,12.00
2007,03,30,13,54,12.10
2007,03,30,13,55,12.10
2007,03,30,13,56,12.10
2007,03,30,13,57,12.10
2007,03,30,13,58,12.20
2007,03,30,13,59,12.20
2007,03,30,14,00,12.30
2007,03,30,14,01,12.30
2007,03,30,14,02,12.30
2007,03,30,14,03,12.30
2007,03,30,14,04,12.30
2007,03,30,14,05,12.30
2007,03,30,14,06,12.30
2007,03,30,14,07,12.30
2007,03,30,14,08,12.30
2007,03,30,14,09,12.40
2007,03,30,14,10,12.40
2007,03,30,14,11,12.40
2007,03,30,14,12,12.40
2007,03,30,14,13,12.50
2007,03,30,14,14,12.50
2007,03,30,14,15,12.40
2007,03,30,14,16,12.40
2007,03,30,14,17,12.40
2007,03,30,14,18,12.40
2007,03,30,14,19,12.40
2007,03,30,14,20,12.40
2007,03,30,14,21,12.40
2007,03,30,14,22,12.40
2007,03,30,14,23,12.40
2007,03,30,14,24,12.40
2007,03,30,14,25,12.40
2007,03,30,14,26,12.40
2007,03,30,14,27,12.40
2007,03,30,14,28,12.50
2007,03,30,14,29,12.50
2007,03,30,14,30,12.50
2007,03,30,14,31,12.50
2007,03,30,14,32,12.50
2007,03,30,14,33,12.60
2007,03,30,14,34,12.60
2007,03,30,14,35,12.70
2007,03,30,14,36,12.60
2007,03,30,14,37,12.60
2007,03,30,14,38,12.60
2007,03,30,14,39,12.60
2007,03,30,14,40,12.60
2007,03,30,14,41,12.60
2007,03,30,14,42,12.60
2007,03,30,14,43,12.70
2007,03,30,14,44,12.70
2007,03,30,14,45,12.70
2007,03,30,14,46,12.70
2007,03,30,14,47,12.70
2007,03,30,14,48,12.70
2007,03,30,14,49,12.80
2007,03,30,14,50,12.80
2007,03,30,14,51,12.90
2007,03,30,14,52,12.90
2007,03,30,14,53,13.00
2007,03,30,14,54,13.10
2007,03,30,14,55,13.10
2007,03,30,14,56,13.10
2007,03,30,14,57,13.10
2007,03,30,14,58,13.10
2007,03,30,14,59,13.10
2007,03,30,15,00,13.10
2007,03,30,15,01,13.10
2007,03,30,15,02,13.10
2007,03,30,15,03,13.10
2007,03,30,15,04,13.20
2007,03,30,15,05,13.30
2007,03,30,15,06,13.30
2007,03,30,15,07,13.40
2007,03,30,15,08,13.30
2007,03,30,15,09,13.30
2007,03,30,15,10,13.30
2007,03,30,15,11,13.30
2007,03,30,15,12,13.30
2007,03,30,15,13,13.30
2007,03,30,15,14,13.30
2007,03,30,15,15,13.30
2007,03,30,15,16,13.20
2007,03,30,15,17,13.10
2007,03,30,15,18,13.00
2007,03,30,15,19,12.90
2007,03,30,15,20,12.90
2007,03,30,15,21,12.80
2007,03,30,15,22,12.80
2007,03,30,15,23,12.70
2007,03,30,15,24,12.70
2007,03,30,15,25,12.70
2007,03,30,15,26,12.60
2007,03,30,15,27,12.60
2007,03,30,15,28,12.60
2007,03,30,15,29,12.50
2007,03,30,15,30,12.50
2007,03,30,15,31,12.50
2007,03,30,15,32,12.50
2007,03,30,15,33,12.50
2007,03,30,15,34,12.50
2007,03,30,15,35,12.50
2007,03,30,15,36,12.50
2007,03,30,15,37,12.40
2007,03,30,15,38,12.30
2007,03,30,15,39,12.30
2007,03,30,15,40,12.20
2007,03,30,15,41,12.10
2007,03,30,15,42,12.10
2007,03,30,15,43,12.00
2007,03,30,15,44,11.90
2007,03,30,15,45,11.80
2007,03,30,15,46,11.80
2007,03,30,15,47,11.80
2007,03,30,15,48,11.80
2007,03,30,15,49,11.80
2007,03,30,15,50,11.80
2007,03,30,15,51,11.80
2007,03,30,15,52,11.80
2007,03,30,15,53,11.80
2007,03,30,15,54,11.70
2007,03,30,15,55,11.70
2007,03,30,15,56,11.60
2007,03,30,15,57,11.60
2007,03,30,15,58,11.50
2007,03,30,15,59,11.40
2007,03,30,16,00,11.40
2007,03,30,16,01,11.30
2007,03,30,16,02,11.30
2007,03,30,16,03,11.20
2007,03,30,16,04,11.10
2007,03,30,16,05,11.10
2007,03,30,16,06,11.00
2007,03,30,16,07,10.90
2007,03,30,16,08,10.90
2007,03,30,16,09,10.80
2007,03,30,16,10,10.80
2007,03,30,16,11,10.80
2007,03,30,16,12,10.80
2007,03,30,16,13,10.80
2007,03,30,16,14,10.80
2007,03,30,16,15,10.80
2007,03,30,16,16,10.70
2007,03,30,16,17,10.70
2007,03,30,16,18,10.70
2007,03,30,16,19,10.60
2007,03,30,16,20,10.60
2007,03,30,16,21,10.50
2007,03,30,16,22,10.50
2007,03,30,16,23,10.50
2007,03,30,16,24,10.40
2007,03,30,16,25,10.40
2007,03,30,16,26,10.40
2007,03,30,16,27,10.40
2007,03,30,16,28,10.40
2007,03,30,16,29,10.40
2007,03,30,16,30,10.40
2007,03,30,16,31,10.40
2007,03,30,16,32,10.40
2007,03,30,16,33,10.40
2007,03,30,16,34,10.40
2007,03,30,16,35,10.40
2007,03,30,16,36,10.40
2007,03,30,16,37,10.50
2007,03,30,16,38,10.50
2007,03,30,16,39,10.50
2007,03,30,16,40,10.60
2007,03,30,16,41,10.60
2007,03,30,16,42,10.60
2007,03,30,16,43,10.60
2007,03,30,16,44,10.60
2007,03,30,16,45,10.70
2007,03,30,16,46,10.70
2007,03,30,16,47,10.70
2007,03,30,16,48,10.70
2007,03,30,16,49,10.70
2007,03,30,16,50,10.70
2007,03,30,16,51,10.80
2007,03,30,16,52,10.80
2007,03,30,16,53,10.80
2007,03,30,16,54,10.80
2007,03,30,16,55,10.70
2007,03,30,16,56,10.70
2007,03,30,16,57,10.70
2007,03,30,16,58,10.70
2007,03,30,16,59,10.70
2007,03,30,17,00,10.60
2007,03,30,17,01,10.60
2007,03,30,17,02,10.60
2007,03,30,17,03,10.50
2007,03,30,17,04,10.50
2007,03,30,17,05,10.40
2007,03,30,17,06,10.40
2007,03,30,17,07,10.40
2007,03,30,17,08,10.40
2007,03,30,17,09,10.40
2007,03,30,17,10,10.40
2007,03,30,17,11,10.40
2007,03,30,17,12,10.40
2007,03,30,17,13,10.40
2007,03,30,17,14,10.30
2007,03,30,17,15,10.30
2007,03,30,17,16,10.20
2007,03,30,17,17,10.20
2007,03,30,17,18,10.20
2007,03,30,17,19,10.20
2007,03,30,17,20,10.20
2007,03,30,17,21,10.10
2007,03,30,17,22,10.10
2007,03,30,17,23,10.10
2007,03,30,17,24,10.10
2007,03,30,17,25,10.10
2007,03,30,17,26,10.10
2007,03,30,17,27,10.00
2007,03,30,17,28,10.00
2007,03,30,17,29,10.00
2007,03,30,17,30,10.00
2007,03,30,17,31,10.00
2007,03,30,17,32,10.10
2007,03,30,17,33,10.10
2007,03,30,17,34,10.10
2007,03,30,17,35,10.10
2007,03,30,17,36,10.20
2007,03,30,17,37,10.20
2007,03,30,17,38,10.20
2007,03,30,17,39,10.30
2007,03,30,17,40,10.30
2007,03,30,17,41,10.30
2007,03,30,17,42,10.30
2007,03,30,17,43,10.40